EHI
0 0 0 0 0 0 0 0 0 0 0 0 0 0 0 0 0 0 0 0 0 0 0 0 0 0 0 0 0 0 0 0 0 0 0 0 0 0 0 0 0 0 0
0 0 0 0 0 0 0 0 0 0 0 0 0 0 0 0 0 0 0 0 0 0 0 0 0 0 0 0 0 0 0 0 0 0 0 0 0 0 0 0 0 0 0
0 0 0 0 0 0 0 0 0 0 0 0 0 0 0 0 0 0 0 0 0 0 0 0 0 0 0 0 0 0 0 0 0 0 0 0 0 0 0 0 0 0 0
0 0 0 0 0 0 0 0 0 0 0 0 0 0 0 0 0 0 0 0 0 0 0 0 0 0 0 0 0 0 0 0 0 0 0 0 0 0 0 0 0 0 0
0 0 0 0 0 0 0 0 0 0 0 0 0 0 0 0 0 0 0 0 0 0 0 0 0 0 0 0 0 0 0 0 0 0 0 0 0 0 0 0 0 0 0
0 0 0 0 0 0 0 0 0 0 0 0 0 0 0 0 0 0 0 0 0 0 0 0 0 0 0 0 0 0 0 0 0 0 0 0 0 0 0 0 0 0 0
1 1 0 0 0 0 0 0 0 0 0 0 0 0 0 0 0 0 0 0 0 0 0 0 0 0 0 0 0 0 0 0 0 0 0 0 0 0 0 0 0 0 0
2 1 0 0 0 0 0 0 0 0 0 0 0 0 0 0 0 0 0 0 0 0 0 0 0 0 0 0 0 0 0 0 0 0 0 0 0 0 0 0 0 0 0
1 1 0 0 0 0 0 0 0 0 0 0 0 0 0 0 0 0 0 0 0 0 0 0 0 0 0 0 0 0 0 0 0 0 0 0 0 0 0 0 0 0 0
0 0 0 0 0 0 0 0 0 0 0 0 0 0 0 0 0 0 0 0 0 0 0 0 0 0 0 0 0 0 0 0 0 0 0 0 0 0 0 0 0 0 0
0 0 0 0 0 0 0 0 0 0 0 0 0 0 0 0 0 0 0 0 0 0 0 0 0 0 0 0 0 0 0 0 0 0 0 0 0 0 0 0 0 0 0
0 0 0 0 0 0 0 0 0 0 0 0 0 0 0 0 0 0 0 0 0 0 0 0 0 0 0 0 0 0 0 0 0 0 0 0 0 0 0 0 0 0 0
0 0 0 0 0 0 0 0 0 0 0 0 0 0 0 0 0 0 0 0 0 0 0 0 0 0 0 0 0 0 0 0 0 0 0 0 0 0 0 0 0 0 0
0 0 0 0 0 0 0 0 0 0 0 0 0 0 0 0 0 0 0 0 0 0 0 0 0 0 0 0 0 0 0 0 0 0 0 0 0 0 0 0 0 0 0
0 0 0 0 0 0 0 0 0 0 0 0 0 0 0 0 0 0 0 0 0 0 0 0 0 0 0 0 0 0 0 0 0 0 0 0 0 0 0 0 0 0 0
0 0 0 0 0 0 0 0 0 0 0 0 0 0 0 0 0 0 0 0 0 0 0 0 0 0 0 0 0 0 0 0 0 0 0 0 0 0 0 0 0 0 0
0 0 0 0 0 0 0 0 0 0 0 0 0 0 0 0 0 0 0 0 0 0 0 0 0 0 0 0 0 0 0 0 0 0 0 0 0 0 0 0 0 0 0
0 0 0 0 0 0 0 0 0 0 0 0 0 0 0 0 0 0 0 0 0 0 0 0 0 0 0 0 0 0 0 0 0 0 0 0 0 0 0 0 0 0 0
0 0 0 0 0 0 0 0 0 0 0 0 0 0 0 0 0 0 0 0 0 0 0 0 0 0 0 0 0 0 0 0 0 0 0 0 0 0 0 0 0 0 0
0 0 0 0 0 0 0 0 0 0 0 0 0 0 0 0 0 0 0 0 0 0 0 0 0 0 0 0 0 0 0 0 0 0 0 0 0 0 0 0 0 0 0
0 0 0 0 0 0 0 0 0 0 0 0 0 0 0 0 0 0 0 0 0 0 0 0 0 0 0 0 0 0 0 0 0 0 0 0 0 0 0 0 0 0 0
0 0 0 0 0 0 0 0 0 0 0 0 0 0 0 0 0 0 0 0 0 0 0 0 0 0 0 0 0 0 0 0 0 0 0 0 0 0 0 0 0 0 0
0 0 0 0 0 0 0 0 0 0 0 0 0 0 0 0 0 0 0 0 0 0 0 0 0 0 0 0 0 0 0 0 0 0 0 0 0 0 0 0 0 0 0
0 0 0 0 0 0 0 0 0 0 0 0 0 0 0 0 0 0 0 0 0 0 0 0 0 0 0 0 0 0 0 0 0 0 0 0 0 0 0 0 0 0 0
0 0 0 0 0 0 0 0 0 0 0 0 0 0 0 0 0 0 0 0 0 0 0 0 0 0 0 0 0 0 0 0 0 0 0 0 0 0 0 0 0 0 0
0 0 0 0 1 1 1 0 0 0 0 0 0 0 0 0 0 0 0 0 0 0 0 0 0 0 0 0 0 0 0 0 0 0 0 0 0 0 0 0 0 0 0
Wind_Speed
2 2 1 1 2 2 2 2 1 2 2 2 2 4 4 4 4 3 2 7 8 8 9 9 9 9 9 9 9 9 9 8 8 7 8 8 8 7 7 7 7 6 6
3 3 2 2 2 2 2 2 2 2 1 1 2 3 3 3 3 3 2 3 7 7 8 9 9 9 9 9 9 9 9 8 8 7 7 7 7 7 7 7 6 6 6
4 3 3 2 2 2 2 2 2 2 2 1 1 2 2 2 3 3 3 2 3 6 8 8 8 9 9 9 9 9 9 8 8 8 7 7 7 7 7 7 7 7 6
5 4 3 3 3 2 2 2 2 2 2 2 1 1 1 1 2 3 3 3 2 3 5 8 8 8 9 10 10 10 10 9 9 9 8 8 8 8 7 7 7 7 7
5 4 3 2 3 3 2 2 2 2 2 2 2 1 1 1 1 2 2 3 3 3 3 4 7 8 10 10 10 10 10 10 10 10 10 10 10 9 8 8 8 8 8
5 4 3 3 3 3 2 2 3 2 2 2 2 2 1 0 0 1 2 2 3 4 4 3 3 5 8 9 9 10 10 10 10 11 11 11 11 10 10 10 9 9 9
6 5 4 4 3 3 3 4 3 3 2 2 3 2 2 1 0 1 2 2 3 4 4 4 3 3 3 6 8 8 10 11 11 11 11 12 12 11 11 11 11 11 11
6 5 5 4 4 3 4 3 3 3 2 2 2 2 1 2 2 1 1 3 3 3 4 5 5 5 4 3 5 8 10 11 11 11 11 12 12 11 12 12 12 12 12
5 5 6 5 4 4 4 3 4 4 3 1 1 3 3 2 1 2 1 2 2 3 3 4 5 6 6 5 5 7 10 10 11 12 11 11 11 11 11 12 12 12 13
5 5 6 5 5 3 4 3 3 3 4 3 1 1 1 2 2 0 2 1 2 3 4 4 5 5 6 5 6 8 10 10 10 11 11 10 10 11 11 12 12 13 13
4 5 5 5 5 3 4 4 4 3 3 3 3 2 2 1 2 2 1 2 1 2 2 3 3 4 4 5 5 7 10 10 10 10 10 10 10 10 11 12 13 13 13
2 4 5 4 5 4 4 4 4 4 3 3 3 2 3 2 2 2 2 1 1 2 1 1 2 3 3 4 6 7 9 9 9 9 9 10 10 10 10 11 12 12 12
3 4 4 4 4 4 4 4 4 4 4 4 3 2 2 2 2 3 2 1 0 1 2 1 1 2 2 2 3 6 6 7 8 8 9 9 9 8 9 9 9 10 10
4 5 5 5 5 5 5 4 3 3 4 4 4 3 2 1 1 2 3 3 1 1 2 2 2 2 2 2 3 3 3 3 4 5 6 7 7 7 7 7 8 8 8
4 6 5 5 5 5 5 5 3 4 4 3 3 3 2 1 1 1 1 2 3 2 1 2 2 3 3 2 3 2 2 4 3 3 3 3 4 5 5 6 7 7 8
4 6 6 5 5 5 6 5 4 4 4 3 3 3 2 2 1 1 1 1 2 3 2 1 1 3 4 4 5 4 3 5 5 5 4 3 3 3 3 4 5 6 7
6 6 6 5 5 5 5 5 4 5 5 4 3 4 3 3 3 2 2 2 1 1 2 0 1 2 4 5 5 4 4 3 4 6 6 5 5 5 5 5 5 5 5
6 6 6 6 5 5 5 5 5 5 5 5 4 5 4 3 4 3 2 2 2 1 2 1 1 2 4 4 5 5 5 5 4 8 8 9 8 7 6 6 6 6 6
6 6 6 6 5 5 5 5 5 6 6 6 5 5 4 5 5 4 4 3 2 2 1 1 1 2 2 3 4 4 5 5 5 6 8 8 9 9 8 8 7 7 6
6 6 5 5 6 6 6 7 7 8 8 7 7 7 6 6 5 5 4 4 3 4 3 3 2 2 2 3 3 4 4 4 4 5 7 6 8 9 10 9 9 8 8
6 6 6 6 6 5 6 8 8 9 9 9 8 8 8 10 10 7 6 5 5 4 4 4 3 3 3 4 4 3 3 3 2 4 5 5 5 5 6 7 8 10 9
6 7 7 7 7 5 9 11 10 9 9 9 9 8 9 10 13 15 16 13 9 6 4 3 3 3 4 3 3 3 3 4 3 4 5 4 3 4 5 4 8 9 9
8 8 7 8 9 9 12 14 15 11 10 9 8 7 7 8 9 9 12 15 15 15 11 5 5 4 3 4 4 4 4 3 3 5 4 3 3 4 5 6 9 9 8
8 8 8 9 10 10 14 16 17 13 11 10 8 8 8 7 7 8 9 10 10 10 10 8 6 5 5 4 3 3 3 3 3 2 3 3 4 5 6 6 7 8 10
9 9 8 9 10 10 13 15 14 10 10 10 8 8 8 8 10 10 9 9 8 7 9 12 12 11 12 12 8 4 4 4 4 3 3 4 4 6 6 5 5 9 11
10 10 10 9 10 10 12 13 12 8 9 8 7 8 11 10 10 10 8 8 8 5 5 7 8 9 9 10 11 7 4 4 3 3 4 5 5 6 6 4 5 8 9
Wind_Direction
166 163 157 147 136 121 122 117 107 107 113 125 140 141 141 147 153 155 176 189 181 178 177 175 176 175 172 172 172 172 171 170 169 171 171 167 169 172 173 171 171 173 173
170 167 166 167 162 155 149 142 128 119 118 126 136 140 147 155 159 161 170 195 187 183 186 186 186 187 185 184 185 185 183 183 180 180 181 179 180 184 185 184 185 182 181
175 168 166 176 175 160 146 126 110 102 116 124 125 128 139 163 169 168 165 172 188 194 194 198 197 197 196 196 196 196 195 193 189 188 190 191 193 196 197 196 197 193 192
172 164 168 180 167 150 145 136 126 117 114 122 129 126 127 152 173 171 171 179 182 195 207 211 207 207 208 208 208 206 205 203 198 199 200 202 202 203 204 206 208 203 202
174 166 169 169 154 146 148 155 125 131 137 136 136 108 85 145 180 189 191 195 196 199 205 221 218 216 219 220 220 217 213 213 209 210 212 213 212 210 211 214 216 213 211
170 160 157 158 151 146 149 142 124 107 114 130 113 86 55 58 171 207 218 210 206 209 209 219 225 230 231 232 230 227 223 220 217 218 220 221 220 216 215 217 220 221 219
165 160 155 149 153 158 164 152 126 118 107 118 99 63 25 22 240 235 224 218 218 216 211 217 219 225 239 244 241 237 235 230 225 224 226 226 227 223 219 220 222 224 225
165 163 153 155 156 147 145 149 134 124 110 118 125 110 45 352 339 282 232 224 227 220 227 227 225 226 230 235 243 245 244 241 237 232 231 231 232 230 227 226 226 227 229
162 156 159 155 158 157 160 164 153 143 138 118 122 139 147 210 287 319 279 242 227 221 232 232 231 232 230 231 239 247 249 246 245 244 239 234 233 233 233 233 234 234 234
160 160 158 157 157 153 156 166 159 146 139 144 122 85 126 151 148 324 326 300 250 235 237 237 238 236 233 232 233 237 245 248 249 251 249 243 235 233 236 238 240 241 240
162 163 159 155 153 151 156 155 151 147 144 150 153 144 121 88 103 137 267 320 308 260 244 240 243 243 236 232 235 241 244 244 246 249 251 247 242 239 239 240 243 246 246
155 161 154 151 151 152 157 160 155 148 145 140 142 147 150 151 163 155 174 247 291 310 310 275 256 255 247 238 244 246 244 244 244 246 248 249 247 246 246 248 250 252 253
169 175 157 154 155 157 156 150 147 147 147 145 149 146 147 155 150 149 150 171 274 318 333 344 315 297 282 259 261 261 258 252 247 247 248 250 252 254 256 256 257 259 260
175 166 159 158 159 156 153 146 139 146 145 146 146 139 133 139 153 161 157 149 131 349 348 333 343 355 334 321 313 292 291 286 268 258 253 254 255 256 259 260 261 263 264
164 158 158 156 157 154 150 146 142 146 142 138 138 135 123 119 125 143 151 157 153 171 275 330 341 352 354 8 358 6 2 9 359 340 314 295 287 281 277 271 267 265 264
154 150 155 158 156 152 151 145 142 145 137 132 132 127 116 110 105 107 130 139 152 161 187 312 341 355 5 22 29 27 21 20 23 18 19 14 359 344 323 307 294 285 277
155 155 157 155 155 153 152 148 147 145 136 126 124 122 110 102 95 79 78 84 90 133 167 275 350 5 21 20 16 20 23 23 22 27 29 26 21 12 360 346 334 324 310
152 152 149 147 151 151 151 151 148 142 137 129 120 113 104 100 90 79 80 77 71 89 155 175 11 12 24 15 15 22 22 23 23 38 42 38 31 26 16 8 359 349 339
136 137 141 145 143 139 136 136 133 124 115 109 106 104 98 99 88 77 74 69 58 64 78 116 44 15 14 15 9 16 20 11 22 35 33 30 25 22 17 12 6 359 354
130 131 136 139 137 132 126 123 118 113 106 96 91 89 86 88 90 84 73 60 61 63 61 69 53 25 13 4 17 9 6 2 5 17 16 19 20 20 16 12 12 11 4
130 128 123 116 113 115 122 123 119 115 107 98 88 84 83 85 82 79 78 66 65 66 63 60 50 36 21 13 9 354 356 342 355 12 357 358 359 5 5 6 13 9 5
112 110 107 105 99 100 111 116 115 108 103 99 91 82 78 72 76 75 73 69 68 69 68 65 54 45 24 7 355 360 359 358 348 1 344 334 349 352 350 353 2 3 6
106 101 101 101 96 94 102 106 107 105 99 93 90 86 80 73 74 78 73 67 61 61 66 82 69 47 24 2 2 12 12 0 333 335 332 321 342 340 337 339 342 345 356
108 104 100 99 97 94 98 101 102 98 93 88 85 85 86 75 76 86 84 74 66 57 57 63 69 54 41 23 22 14 347 334 310 342 357 323 334 329 324 319 326 342 351
105 100 98 100 100 96 97 102 104 100 93 84 78 76 81 79 79 85 85 80 68 55 56 61 61 55 47 43 38 30 18 5 347 345 7 334 322 320 309 304 322 338 335
106 101 93 91 97 96 92 96 102 104 100 93 81 75 76 81 77 77 81 80 73 52 42 43 43 40 38 36 36 34 18 5 346 328 357 339 326 331 313 304 318 322 319